Location: Les Coudrans
(46.1056°N, 1.1158°W)
Time: 02:22:07
(UTC+00:00)

DMSP B5D2-2 - Pass Details

Date: 29 June 2021
Orbit: 789 x 807 km, 98.3° (Epoch: 02 August)

Event Time Altitude Azimuth Distance (km) Brightness Sun altitude
Rises 21:03:10 0° 359° (N) 3,314 8.1 -9.0°
Reaches altitude 10° 21:06:27 10° 337° (NNW) 2,375 7.9 -9.4°
Maximum altitude 21:09:22 15° 303° (WNW) 2,022 7.4 -9.8°
Drops below altitude 10° 21:12:16 10° 269° (W) 2,361 7.1 -10.1°
Sets 21:15:31 0° 247° (WSW) 3,283 7.5 -10.5°
